DECAYED

STARLINK-1896, 46760 (Decayed)

Orbit data source: Space-Track

STARLINK-1896, 46760 was a payload satellite owned by SpaceX/Seattle (US) in LEO that was launched on Sat, 24 Oct 2020 UTC via an FALCON 9 launch vehicle from the Air Force Eastern Test Range (AFETR). Payload-class satellites include a variety of spacecraft equipped with specific instruments for various scientific and technological missions. These include communications satellites like Starlink; space stations such as the ISS; scientific satellites like the Hubble; Earth observation satellites from companies like Planet Labs, Umbra, and HawkEye 360; GPS; miniature CubeSats for education and research; and military/defense satellites.

Not visible in the next 10 days
Identifier
46760, 2020-074X
Orbit
Decayed
Country
Flag of USUS
Related business
Manufacturer
SpaceX/Seattle
Mission
Decayed Commercial Communications
Bus & Motor
STARLINK, Unknown motor
Mass
260 kg wet, ~248 kg dry
Launch date (UTC)
2020-10-24 (6 years ago)
Launch vehicle
FALCON 9
Launch site
Air Force Eastern Test Range (AFETR)
Object type
Payload
Rocket body
Debris
Shape & HBR
Box + 1 Pan, 10.1 m
Radar Cross Section
13.562 m², Large (>1 m²)

Expand to show TLE details & history
Last TLE update: 1 year ago

TLE from 1 year ago
0 STARLINK-1896
1 46760U 20074X   25025.29608262  .16870958  12471-4  52417-3 0  9990
2 46760  53.0338 337.3343 0001952 184.1734 331.5507 16.45107322235384
Epoch: 2025-01-25T07:06Z
TLE epoch observation values (Epoch: 2025-01-25T07:06:21.538Z)
Latitude
19.22536°
Longitude
-89.22898°
Altitude
151.553 km
Speed
7.819 km/s
True Right ascension
09h 28m 49s
True Declination
19° 06' 32"
Sunlit
Object was in full shadow at epoch
Visualization orbit readout
Latitude
Unknown
Longitude
Unknown
Altitude
Unknown
Speed
Unknown
Apparent Right ascension
Unknown
Apparent Declination
Unknown
Sunlit
N/A
Visualization observer readout
Local Sidereal Time
22:18:35
Azimuth
Unknown
Elevation
Unknown
Doppler factor
Unknown
Orbital elements
Apogee altitude
153.816 km
Perigee altitude
151.267 km
Semi-major axis
6,530.679 km
Eccentricity
0.0002
Inclination
53.0338°
RAAN
337.3343°
Arg. of periapsis
184.1734°
True anomaly
331.54004°
Mean anomaly
331.5507°
Eccentric anomaly
331.54537°
Mean motion
4.1125 °/min
Orbital period
87.54 mins
BSTAR
0.00052417
Loading maneuver chart data...
Computing Atmospheric mass density...

Documentation

Showing up to 5 results
|